TimeCST,TemperatureF,Dew PointF,Humidity,Sea Level PressureIn,VisibilityMPH,Wind Direction,Wind SpeedMPH,Gust SpeedMPH,PrecipitationIn,Events,Conditions,WindDirDegrees,DateUTC
12:15 AM,44.6,23.0,43,29.95,10.0,SW,3.5,-,N/A,,Scattered Clouds,220,2012-11-17 06:15:00
12:35 AM,46.4,23.0,40,29.94,10.0,ESE,3.5,-,N/A,,Mostly Cloudy,110,2012-11-17 06:35:00
12:55 AM,46.4,23.0,40,29.94,10.0,North,4.6,-,N/A,,Mostly Cloudy,350,2012-11-17 06:55:00
1:15 AM,44.6,23.0,43,29.94,10.0,Calm,Calm,-,N/A,,Overcast,0,2012-11-17 07:15:00
1:35 AM,46.4,23.0,40,29.93,10.0,Calm,Calm,-,N/A,,Overcast,0,2012-11-17 07:35:00
1:55 AM,48.2,23.0,37,29.93,10.0,Calm,Calm,-,N/A,,Mostly Cloudy,0,2012-11-17 07:55:00
2:15 AM,53.6,23.0,30,29.92,10.0,SW,19.6,25.3,N/A,,Mostly Cloudy,220,2012-11-17 08:15:00
2:35 AM,53.6,23.0,30,29.92,10.0,SW,20.7,25.3,N/A,,Partly Cloudy,220,2012-11-17 08:35:00
2:55 AM,50.0,23.0,35,29.92,10.0,SSW,15.0,20.7,N/A,,Partly Cloudy,210,2012-11-17 08:55:00
3:15 AM,50.0,23.0,35,29.92,10.0,SSW,21.9,27.6,N/A,,Partly Cloudy,210,2012-11-17 09:15:00
3:35 AM,50.0,23.0,35,29.91,10.0,SSW,18.4,29.9,N/A,,Clear,210,2012-11-17 09:35:00
3:55 AM,48.2,23.0,37,29.93,10.0,NW,5.8,-,N/A,,Clear,310,2012-11-17 09:55:00
4:15 AM,44.6,23.0,43,29.93,10.0,NW,10.4,-,N/A,,Clear,310,2012-11-17 10:15:00
4:35 AM,46.4,24.8,43,29.93,10.0,West,9.2,-,N/A,,Clear,280,2012-11-17 10:35:00
4:55 AM,46.4,24.8,43,29.93,10.0,West,11.5,18.4,N/A,,Clear,280,2012-11-17 10:55:00
5:15 AM,44.6,24.8,46,29.95,10.0,West,9.2,-,N/A,,Clear,280,2012-11-17 11:15:00
5:35 AM,44.6,24.8,46,29.95,10.0,West,11.5,-,N/A,,Clear,280,2012-11-17 11:35:00
5:55 AM,42.8,24.8,49,29.96,10.0,West,8.1,-,N/A,,Clear,280,2012-11-17 11:55:00
6:15 AM,42.8,24.8,49,29.96,10.0,West,11.5,-,N/A,,Clear,260,2012-11-17 12:15:00
6:35 AM,42.8,24.8,49,29.96,10.0,West,12.7,-,N/A,,Clear,270,2012-11-17 12:35:00
6:55 AM,42.8,24.8,49,29.97,10.0,West,12.7,-,N/A,,Clear,270,2012-11-17 12:55:00
7:15 AM,41.0,24.8,53,29.98,10.0,West,11.5,-,N/A,,Clear,270,2012-11-17 13:15:00
7:35 AM,41.0,24.8,53,29.98,10.0,West,11.5,-,N/A,,Clear,260,2012-11-17 13:35:00
7:55 AM,39.2,24.8,56,30.00,10.0,West,9.2,-,N/A,,Clear,270,2012-11-17 13:55:00
8:15 AM,39.2,24.8,56,30.00,10.0,West,6.9,-,N/A,,Clear,260,2012-11-17 14:15:00
8:35 AM,41.0,24.8,53,30.01,10.0,WSW,6.9,-,N/A,,Clear,250,2012-11-17 14:35:00
8:55 AM,44.6,24.8,46,30.02,10.0,West,8.1,-,N/A,,Clear,270,2012-11-17 14:55:00
9:15 AM,46.4,24.8,43,30.02,10.0,West,8.1,-,N/A,,Clear,280,2012-11-17 15:15:00
9:35 AM,46.4,24.8,43,30.03,10.0,West,8.1,-,N/A,,Clear,280,2012-11-17 15:35:00
9:55 AM,48.2,24.8,40,30.03,10.0,West,10.4,-,N/A,,Clear,270,2012-11-17 15:55:00
10:15 AM,50.0,24.8,37,30.03,10.0,NW,11.5,-,N/A,,Clear,310,2012-11-17 16:15:00
11:35 AM,53.6,23.0,30,30.02,10.0,WNW,13.8,-,N/A,,Clear,300,2012-11-17 17:35:00
11:55 AM,53.6,23.0,30,30.02,10.0,WNW,15.0,18.4,N/A,,Clear,300,2012-11-17 17:55:00
12:15 PM,55.4,21.2,26,30.01,10.0,WNW,13.8,18.4,N/A,,Clear,300,2012-11-17 18:15:00
12:35 PM,55.4,21.2,26,30.01,10.0,NW,13.8,-,N/A,,Clear,310,2012-11-17 18:35:00
12:55 PM,55.4,19.4,25,30.00,10.0,WNW,12.7,-,N/A,,Clear,300,2012-11-17 18:55:00
1:15 PM,57.2,19.4,23,30.00,10.0,NW,11.5,-,N/A,,Clear,310,2012-11-17 19:15:00
1:35 PM,57.2,21.2,25,30.00,10.0,WNW,10.4,18.4,N/A,,Clear,300,2012-11-17 19:35:00
1:55 PM,57.2,23.0,27,29.99,10.0,NNW,12.7,-,N/A,,Clear,330,2012-11-17 19:55:00
2:15 PM,57.2,23.0,27,30.00,10.0,NW,10.4,-,N/A,,Clear,310,2012-11-17 20:15:00
2:55 PM,57.2,23.0,27,29.99,10.0,WNW,9.2,-,N/A,,Clear,300,2012-11-17 20:55:00
3:15 PM,57.2,23.0,27,29.99,10.0,NNW,6.9,-,N/A,,Clear,330,2012-11-17 21:15:00
3:35 PM,57.2,23.0,27,30.00,10.0,North,8.1,-,N/A,,Clear,360,2012-11-17 21:35:00
3:55 PM,55.4,23.0,29,30.00,10.0,North,6.9,-,N/A,,Clear,360,2012-11-17 21:55:00
4:15 PM,53.6,23.0,30,30.00,10.0,NNE,8.1,-,N/A,,Clear,30,2012-11-17 22:15:00
4:55 PM,50.0,21.2,32,30.01,10.0,Calm,Calm,-,N/A,,Clear,0,2012-11-17 22:55:00
5:15 PM,42.8,24.8,49,30.01,10.0,South,5.8,-,N/A,,Clear,180,2012-11-17 23:15:00
5:35 PM,41.0,24.8,53,30.00,10.0,South,10.4,-,N/A,,Clear,190,2012-11-17 23:35:00
5:55 PM,39.2,24.8,56,30.00,10.0,South,9.2,-,N/A,,Clear,190,2012-11-17 23:55:00
6:15 PM,39.2,23.0,52,30.00,10.0,South,11.5,-,N/A,,Clear,190,2012-11-18 00:15:00
6:35 PM,39.2,23.0,52,30.00,10.0,South,5.8,-,N/A,,Clear,170,2012-11-18 00:35:00
6:55 PM,37.4,23.0,56,30.00,10.0,South,6.9,-,N/A,,Clear,170,2012-11-18 00:55:00
7:15 PM,37.4,23.0,56,29.99,10.0,SSE,8.1,-,N/A,,Clear,160,2012-11-18 01:15:00
7:35 PM,35.6,23.0,60,29.99,10.0,South,5.8,-,N/A,,Clear,190,2012-11-18 01:35:00
7:55 PM,37.4,23.0,56,29.99,10.0,South,6.9,-,N/A,,Clear,190,2012-11-18 01:55:00
8:15 PM,37.4,23.0,56,29.98,10.0,South,4.6,-,N/A,,Clear,170,2012-11-18 02:15:00
8:35 PM,37.4,23.0,56,29.98,10.0,SSW,3.5,-,N/A,,Clear,200,2012-11-18 02:35:00
8:55 PM,37.4,23.0,56,29.97,10.0,SW,3.5,-,N/A,,Clear,220,2012-11-18 02:55:00
9:15 PM,37.4,23.0,56,29.97,10.0,SSW,4.6,-,N/A,,Clear,210,2012-11-18 03:15:00
9:35 PM,39.2,23.0,52,29.97,10.0,Calm,Calm,-,N/A,,Clear,0,2012-11-18 03:35:00
9:55 PM,39.2,23.0,52,29.96,10.0,SE,3.5,-,N/A,,Clear,130,2012-11-18 03:55:00
10:15 PM,35.6,23.0,60,29.96,10.0,WSW,3.5,-,N/A,,Clear,240,2012-11-18 04:15:00
10:35 PM,37.4,23.0,56,29.96,10.0,Calm,Calm,-,N/A,,Clear,0,2012-11-18 04:35:00
10:55 PM,37.4,23.0,56,29.95,10.0,SSW,10.4,-,N/A,,Clear,200,2012-11-18 04:55:00
11:15 PM,37.4,24.8,60,29.95,10.0,SSE,11.5,-,N/A,,Clear,160,2012-11-18 05:15:00
11:35 PM,41.0,24.8,53,29.95,10.0,SSE,9.2,-,N/A,,Clear,160,2012-11-18 05:35:00
11:55 PM,37.4,24.8,60,29.95,10.0,South,6.9,-,N/A,,Clear,180,2012-11-18 05:55:00